Location: *
(23.5860°S, 65.4036°W)
Time: 22:22:38
(UTC+00:00)

Gbstr 26 Del rocket - Pass Details

Date: 25 August 2019
Orbit: 494 x 1264 km, 51.8° (Epoch: 20 September)

Event Time Altitude Azimuth Distance (km) Brightness Sun altitude
Rises 22:23:30 0° 310° (NW) 2,572 7.4 -4.2°
Reaches altitude 10° 22:25:41 10° 305° (NW) 1,685 6.6 -4.7°
Maximum altitude 22:29:19 51° 227° (SW) 640 3.5 -5.5°
Drops below altitude 10° 22:33:13 10° 150° (SSE) 1,808 5.1 -6.4°
Sets 22:35:37 0° 145° (SE) 2,785 6.0 -6.9°
